Weather History for Kill Devil Hills, NC

Change the Weather History Date:

Monday, October 8, 2012

  Actual Average (KMQI) Record (KMQI)
Temperature  
Mean Temperature 61 °F -  
Max Temperature 64 °F 71 °F 84 °F (1990)
Min Temperature 58 °F 59 °F 44 °F (1966)
Degree Days  
Heating Degree Days 4    
Growing Degree Days 11 (Base 50)    
Moisture  
Dew Point 57 °F    
Average Humidity 85    
Maximum Humidity 94    
Minimum Humidity 73    
Precipitation  
Precipitation 0.04 in - - ()
Sea Level Pressure  
Sea Level Pressure 30.11 in    
Wind  
Wind Speed 9 mph (NNE)    
Max Wind Speed 13 mph    
Max Gust Speed 28 mph    
Visibility 9 miles    
Events Rain    
Averages and records for this station are not official NWS values.
T = Trace of Precipitation, MM = Missing Value Source: NWS Daily Summary

Daily Weather History Graph

Daily Weather History Graph

Search for Another Location

Airport:

Trip Planner

Search our weather history database for the weather conditions in past years. The results will help you decide how hot, cold, wet, or windy it might be!

Date:

Astronomy

Oct. 08, 2012 Rise Set
Actual Time 7:03 AM EDT 6:35 PM EDT
Civil Twilight 6:38 AM EDT 7:01 PM EDT
Nautical Twilight 6:08 AM EDT 7:30 PM EDT
Astronomical Twilight 5:38 AM EDT 8:00 PM EDT
Moon No Moon Rise 2:12 PM EDT (10/8)
Length of Visible Light 12h 23m
Length of Day
11h 31m
Waning Gibbous, 46% of the Moon is Illuminated
Oct 8
Waning Gibbous
Oct 15
New
Oct 21
First Quarter
Oct 29
Full
Nov 6
Last Quarter

Hourly Weather History & Observations

Time (EDT) Temp. Dew Point Humidity Pressure Visibility Wind Dir Wind Speed Gust Speed Precip Events Conditions
12:15 AM 58.6 °F 56.5 °F 93% 30.09 in 10.0 mi NNW 8.1 mph - N/A   Overcast
12:35 AM 58.8 °F 56.5 °F 92% 30.09 in 10.0 mi North 9.2 mph 18.4 mph N/A   Overcast
12:55 AM 59.2 °F 56.3 °F 90% 30.10 in 10.0 mi North 9.2 mph - N/A   Overcast
1:15 AM 59.4 °F 56.3 °F 90% 30.10 in 10.0 mi North 5.8 mph - N/A   Overcast
1:35 AM 59.5 °F 56.3 °F 89% 30.10 in 10.0 mi North 10.4 mph - N/A   Overcast
1:55 AM 59.9 °F 55.9 °F 87% 30.09 in 10.0 mi North 9.2 mph 17.3 mph N/A   Overcast
2:15 AM 59.9 °F 55.8 °F 86% 30.10 in 10.0 mi North 8.1 mph - N/A   Overcast
2:35 AM 59.5 °F 55.4 °F 86% 30.10 in 10.0 mi NNE 11.5 mph 20.7 mph N/A   Overcast
2:55 AM 59.5 °F 54.9 °F 84% 30.10 in 10.0 mi NNE 9.2 mph - N/A   Overcast
3:15 AM 59.7 °F 54.9 °F 84% 30.09 in 10.0 mi North 9.2 mph 18.4 mph N/A   Overcast
3:35 AM 59.9 °F 54.7 °F 83% 30.09 in 10.0 mi North 10.4 mph 18.4 mph N/A   Overcast
3:55 AM 59.5 °F 54.3 °F 83% 30.10 in 10.0 mi North 8.1 mph 17.3 mph N/A   Overcast
4:15 AM 59.2 °F 53.8 °F 82% 30.10 in 10.0 mi North 5.8 mph 21.9 mph N/A   Overcast
4:35 AM 59.4 °F 53.6 °F 81% 30.11 in 10.0 mi North 8.1 mph 17.3 mph N/A   Overcast
4:55 AM 59.4 °F 53.4 °F 81% 30.12 in 10.0 mi North 6.9 mph 16.1 mph N/A   Overcast
5:15 AM 59.5 °F 53.2 °F 80% 30.12 in 10.0 mi North 8.1 mph 16.1 mph N/A   Overcast
5:35 AM 59.7 °F 52.9 °F 78% 30.12 in 10.0 mi NNE 8.1 mph - N/A   Overcast
5:55 AM 60.1 °F 52.7 °F 77% 30.12 in 10.0 mi NNE 9.2 mph 17.3 mph N/A   Overcast
6:15 AM 60.1 °F 52.7 °F 77% 30.12 in 10.0 mi NNE 8.1 mph 18.4 mph N/A   Overcast
6:35 AM 60.1 °F 52.7 °F 77% 30.14 in 10.0 mi NNE 8.1 mph 17.3 mph N/A   Overcast
6:55 AM 60.3 °F 52.3 °F 75% 30.14 in 10.0 mi NNE 9.2 mph 17.3 mph N/A   Overcast
7:15 AM 60.1 °F 52.0 °F 75% 30.14 in 10.0 mi NNE 9.2 mph 19.6 mph N/A   Overcast
7:35 AM 60.1 °F 51.8 °F 74% 30.15 in 10.0 mi NNE 9.2 mph - N/A   Overcast
7:55 AM 60.1 °F 51.8 °F 74% 30.17 in 10.0 mi NE 6.9 mph - N/A   Overcast
8:15 AM 60.4 °F 51.8 °F 73% 30.17 in 10.0 mi NNE 6.9 mph - N/A   Overcast
8:35 AM 60.8 °F 52.0 °F 73% 30.17 in 10.0 mi NNE 10.4 mph - N/A   Overcast
8:55 AM 61.2 °F 52.7 °F 74% 30.17 in 10.0 mi NE 8.1 mph 17.3 mph N/A   Overcast
9:15 AM 61.7 °F 54.0 °F 76% 30.18 in 10.0 mi NNE 8.1 mph 17.3 mph N/A   Overcast
9:35 AM 61.7 °F 54.9 °F 78% 30.18 in 10.0 mi NE 6.9 mph 16.1 mph N/A   Overcast
9:55 AM 62.1 °F 55.6 °F 79% 30.19 in 10.0 mi NE 6.9 mph - N/A   Overcast
10:15 AM 62.6 °F 55.9 °F 79% 30.19 in 10.0 mi ENE 6.9 mph - N/A   Overcast
10:35 AM 63.0 °F 55.9 °F 78% 30.18 in 10.0 mi NE 8.1 mph - N/A   Overcast
10:55 AM 63.5 °F 56.1 °F 77% 30.18 in 10.0 mi NE 8.1 mph - N/A   Overcast
11:15 AM 63.7 °F 55.8 °F 75% 30.17 in 10.0 mi East 8.1 mph - N/A   Overcast
11:35 AM 64.0 °F 56.3 °F 76% 30.16 in 10.0 mi NE 9.2 mph 16.1 mph N/A   Mostly Cloudy
11:55 AM 63.7 °F 56.8 °F 78% 30.14 in 10.0 mi NE 8.1 mph - N/A   Scattered Clouds
12:15 PM 63.7 °F 57.0 °F 79% 30.14 in 10.0 mi NE 9.2 mph 17.3 mph N/A   Mostly Cloudy
12:35 PM 63.7 °F 57.4 °F 80% 30.15 in 3.0 mi NNE 4.6 mph - 0.01 in Rain Heavy Rain
12:55 PM 62.1 °F 58.5 °F 88% 30.15 in 4.0 mi NNE 5.8 mph - 0.01 in Rain Light Rain
1:15 PM 61.7 °F 59.0 °F 91% 30.14 in 10.0 mi North 6.9 mph - N/A   Mostly Cloudy
1:55 PM 61.7 °F 59.2 °F 91% 30.11 in 7.0 mi NNE 8.1 mph - 0.01 in   Overcast
2:15 PM 61.7 °F 59.4 °F 92% 30.09 in 7.0 mi NNE 9.2 mph 17.3 mph N/A   Drizzle
2:35 PM 61.9 °F 59.7 °F 93% 30.09 in 7.0 mi NE 11.5 mph 19.6 mph N/A Rain Light Rain
2:55 PM 62.4 °F 60.3 °F 93% 30.08 in 5.0 mi NE 11.5 mph 16.1 mph N/A Rain Light Rain
3:15 PM 62.8 °F 60.6 °F 93% 30.06 in 10.0 mi NE 9.2 mph 19.6 mph N/A   Overcast
3:35 PM 62.8 °F 60.6 °F 93% 30.06 in 10.0 mi NE 10.4 mph 18.4 mph N/A   Overcast
3:55 PM 63.0 °F 60.6 °F 92% 30.06 in 10.0 mi NE 10.4 mph 18.4 mph N/A   Overcast
4:15 PM 63.5 °F 60.4 °F 90% 30.06 in 10.0 mi NE 10.4 mph 18.4 mph 0.01 in   Overcast
4:35 PM 63.7 °F 60.6 °F 90% 30.06 in 10.0 mi NE 9.2 mph 19.6 mph 0.01 in   Overcast
4:55 PM 63.9 °F 60.6 °F 89% 30.06 in 10.0 mi NE 9.2 mph - 0.01 in   Overcast
5:15 PM 64.0 °F 61.0 °F 90% 30.06 in 10.0 mi NE 8.1 mph 16.1 mph N/A   Overcast
5:35 PM 64.0 °F 61.0 °F 90% 30.06 in 10.0 mi NNE 9.2 mph 18.4 mph N/A   Overcast
5:55 PM 64.0 °F 61.0 °F 90% 30.06 in 10.0 mi NNE 12.7 mph 20.7 mph N/A   Overcast
6:15 PM 64.0 °F 61.0 °F 90% 30.07 in 7.0 mi North 9.2 mph 16.1 mph N/A   Drizzle
6:35 PM 63.7 °F 60.8 °F 90% 30.06 in 7.0 mi NNE 12.7 mph 23.0 mph N/A   Drizzle
6:55 PM 63.3 °F 61.0 °F 92% 30.06 in 7.0 mi North 10.4 mph 18.4 mph N/A Rain Rain
7:15 PM 62.8 °F 60.8 °F 93% 30.05 in 7.0 mi NNE 10.4 mph 20.7 mph N/A   Light Drizzle
7:35 PM 62.6 °F 60.6 °F 93% 30.06 in 10.0 mi North 10.4 mph 27.6 mph N/A   Overcast
7:55 PM 62.6 °F 60.4 °F 93% 30.07 in 10.0 mi North 11.5 mph 24.2 mph N/A Rain Light Rain
8:15 PM 62.6 °F 60.3 °F 92% 30.07 in 5.0 mi North 9.2 mph 23.0 mph N/A Rain Rain
8:35 PM 62.6 °F 60.8 °F 94% 30.08 in 5.0 mi NNE 12.7 mph 19.6 mph N/A Rain Rain
8:55 PM 62.8 °F 61.0 °F 94% 30.08 in 7.0 mi NNE 10.4 mph 20.7 mph N/A Rain Light Rain
9:15 PM 63.0 °F 61.2 °F 94% 30.09 in 5.0 mi North 9.2 mph 18.4 mph N/A Rain Heavy Rain
9:35 PM 62.6 °F 60.8 °F 94% 30.07 in 5.0 mi NNE 10.4 mph 19.6 mph N/A   Drizzle
10:15 PM 63.5 °F 61.7 °F 94% 30.08 in 7.0 mi NE 9.2 mph 17.3 mph N/A   Overcast
10:35 PM 63.7 °F 61.7 °F 93% 30.05 in 7.0 mi East 11.5 mph 21.9 mph 0.01 in   Drizzle
10:55 PM 64.0 °F 61.7 °F 92% 30.06 in 10.0 mi ENE 9.2 mph 19.6 mph 0.01 in   Mostly Cloudy
11:15 PM 64.4 °F 61.7 °F 91% 30.06 in 7.0 mi ENE 9.2 mph - N/A Rain Rain
11:55 PM 64.6 °F 62.2 °F 92% 30.02 in 7.0 mi ENE 9.2 mph 17.3 mph N/A   Scattered Clouds